TimeMDT,TemperatureF,Dew PointF,Humidity,Sea Level PressureIn,VisibilityMPH,Wind Direction,Wind SpeedMPH,Gust SpeedMPH,PrecipitationIn,Events,Conditions,WindDirDegrees,DateUTC
12:35 AM,44.6,28.4,53,30.17,10.0,SE,3.5,-,N/A,,Clear,140,2013-03-31 06:35:00
12:55 AM,44.6,28.4,53,30.17,10.0,Calm,Calm,-,N/A,,Clear,0,2013-03-31 06:55:00
1:15 AM,44.6,33.8,66,30.17,10.0,SSW,5.8,-,N/A,,Clear,200,2013-03-31 07:15:00
1:35 AM,41.0,30.2,65,30.17,10.0,SSE,8.1,-,N/A,,Clear,150,2013-03-31 07:35:00
1:55 AM,42.8,32.0,66,30.17,10.0,SE,4.6,-,N/A,,Clear,140,2013-03-31 07:55:00
2:15 AM,42.8,30.2,61,30.17,10.0,SSE,4.6,-,N/A,,Clear,150,2013-03-31 08:15:00
2:35 AM,41.0,30.2,65,30.17,10.0,Calm,Calm,-,N/A,,Clear,0,2013-03-31 08:35:00
2:55 AM,39.2,32.0,75,30.16,10.0,Calm,Calm,-,N/A,,Clear,0,2013-03-31 08:55:00
3:15 AM,41.0,32.0,70,30.16,10.0,SSE,6.9,-,N/A,,Clear,160,2013-03-31 09:15:00
3:35 AM,39.2,30.2,70,30.16,10.0,South,5.8,-,N/A,,Clear,170,2013-03-31 09:35:00
3:55 AM,42.8,30.2,61,30.15,10.0,SE,10.4,-,N/A,,Clear,130,2013-03-31 09:55:00
4:15 AM,42.8,28.4,57,30.15,10.0,SE,4.6,-,N/A,,Clear,130,2013-03-31 10:15:00
4:35 AM,39.2,28.4,65,30.14,10.0,Calm,Calm,-,N/A,,Clear,0,2013-03-31 10:35:00
4:55 AM,37.4,28.4,70,30.14,10.0,Calm,Calm,-,N/A,,Clear,0,2013-03-31 10:55:00
5:15 AM,39.2,28.4,65,30.14,10.0,WNW,3.5,-,N/A,,Clear,300,2013-03-31 11:15:00
5:35 AM,42.8,32.0,66,30.14,10.0,SW,8.1,-,N/A,,Clear,220,2013-03-31 11:35:00
5:55 AM,42.8,32.0,66,30.14,10.0,SSW,5.8,-,N/A,,Clear,210,2013-03-31 11:55:00
6:15 AM,41.0,30.2,65,30.15,10.0,SSE,8.1,-,N/A,,Clear,160,2013-03-31 12:15:00
6:35 AM,37.4,28.4,70,30.15,10.0,SE,8.1,-,N/A,,Clear,140,2013-03-31 12:35:00
6:55 AM,39.2,26.6,61,30.16,10.0,SE,8.1,-,N/A,,Clear,130,2013-03-31 12:55:00
7:50 AM,37.4,26.6,65,30.17,15.0,SE,5.8,-,N/A,,Clear,140,2013-03-31 13:50:00
8:50 AM,44.6,28.4,53,30.18,15.0,ESE,5.8,-,N/A,,Clear,120,2013-03-31 14:50:00
9:47 AM,48.2,30.2,50,30.16,15.0,East,5.8,-,N/A,,Clear,100,2013-03-31 15:47:00
10:47 AM,51.8,32.0,47,30.15,15.0,Variable,3.5,-,N/A,,Clear,0,2013-03-31 16:47:00
11:50 AM,53.6,33.8,47,30.14,15.0,Variable,3.5,-,N/A,,Clear,0,2013-03-31 17:50:00
12:55 PM,59.0,32.0,36,30.12,15.0,Variable,4.6,-,N/A,,Clear,0,2013-03-31 18:55:00
1:50 PM,60.8,28.4,29,30.09,15.0,Calm,Calm,-,N/A,,Partly Cloudy,0,2013-03-31 19:50:00
2:55 PM,66.2,24.8,21,30.05,15.0,Calm,Calm,-,N/A,,Scattered Clouds,0,2013-03-31 20:55:00
3:49 PM,68.0,24.8,20,30.03,15.0,West,4.6,-,N/A,,Mostly Cloudy,260,2013-03-31 21:49:00
6:50 PM,62.6,26.6,26,29.95,15.0,Variable,5.8,-,N/A,,Mostly Cloudy,0,2013-04-01 00:50:00
9:15 PM,55.4,37.4,51,29.96,10.0,South,8.1,-,N/A,,Overcast,170,2013-04-01 03:15:00
9:35 PM,57.2,37.4,48,29.98,10.0,WSW,13.8,25.3,N/A,,Overcast,250,2013-04-01 03:35:00
10:15 PM,55.4,39.2,54,30.01,10.0,West,9.2,-,N/A,,Mostly Cloudy,270,2013-04-01 04:15:00
10:35 PM,55.4,39.2,54,30.03,10.0,NNE,4.6,-,N/A,,Mostly Cloudy,20,2013-04-01 04:35:00
10:55 PM,57.2,35.6,44,30.03,10.0,SE,3.5,-,N/A,,Mostly Cloudy,140,2013-04-01 04:55:00
11:15 PM,55.4,41.0,58,30.04,10.0,SSE,3.5,-,N/A,,Overcast,150,2013-04-01 05:15:00
11:35 PM,55.4,41.0,58,30.04,10.0,NW,5.8,-,N/A,,Overcast,320,2013-04-01 05:35:00
11:55 PM,53.6,39.2,58,30.01,10.0,NNE,11.5,-,N/A,,Scattered Clouds,20,2013-04-01 05:55:00